This demonstration page uses our WeatherBlox Daily Observations layout. Learn more.

Left ArrowRight Arrow

Hourly Observations for September 29, 2019

Temp ( °F °C ) Dew Point ( °F °C ) Humidity (%) Winds ( mph kmh ) Pressure ( in mb ) Visibility ( mi km ) Precip ( " mm )
12:34 am 00:34 Cloudy with Mist and Fog 58 14.4 57 13.9 97 97 SE 7 11 29.95 1014 1 2 0.00 0.00
12:53 am 00:53 Cloudy with Mist and Fog 58 14.4 57 13.9 97 97 ESE 8 13 29.94 1014 1 2 0.00 0.00
1:53 am 01:53 Cloudy with Mist and Fog 59 15 58 14.4 96 96 ESE 9 15 29.92 1013 1 2 0.00 0.00
2:01 am 02:01 Cloudy with Mist and Fog 59 15 58 14.4 96 96 ESE 10 17 29.91 1013 1 1 0.00 0.00
2:10 am 02:10 Cloudy with Mist and Fog 59 15 57 14 94 94 SE 7 11 29.91 1013 1 2 0.00 0.00
2:19 am 02:19 Mostly Cloudy with Mist and Fog 59 15 57 14 94 94 ESE 9 15 29.91 1013 1 1 0.00 0.00
2:53 am 02:53 Mostly Cloudy with Fog 59 15 58 14.4 96 96 ESE 9 15 29.91 1013 1 1 0.00 0.00
3:53 am 03:53 Mostly Cloudy with Fog 60 15.6 59 15 96 96 SE 12 19 29.89 1012 1 1 0.00 0.00
4:53 am 04:53 Mostly Cloudy with Fog 60 15.6 59 15 96 96 SE 10 17 29.88 1012 1 1 0.00 0.00
5:53 am 05:53 Mostly Cloudy with Fog 61 16.1 60 15.6 97 97 SE 10 17 29.86 1011 1 1 0.00 0.00
6:53 am 06:53 Mostly Cloudy with Fog 62 16.7 61 16.1 96 96 SE 9 15 29.86 1011 1 1 0.01 0.25
7:03 am 07:03 Cloudy with Mist and Fog 62 16.7 61 16.1 96 96 SE 9 15 29.84 1010 2 3 0.00 0.00
7:11 am 07:11 Cloudy with Mist and Fog 62 16.7 61 16.1 96 96 SE 9 15 29.84 1010 5 8 0.00 0.00
7:19 am 07:19 Cloudy with Thunderstorms 63 17.2 62 16.7 97 97 VRB 6 9 29.85 1011 3 4 0.05 1.27
7:34 am 07:34 Cloudy with Thunderstorms 63 17 63 17 100 100 SE 12 19 29.85 1011 5 8 0.00 0.00
7:53 am 07:53 Cloudy 63 17.2 62 16.7 97 97 SSE 7 11 29.87 1012 8 13 0.06 1.52
8:36 am 08:36 Cloudy 66 19 64 18 94 94 SSE 12 19 29.82 1010 8 13 0.00 0.00
8:53 am 08:53 Cloudy 66 18.9 65 18.3 96 96 SSE 14 22 29.85 1011 8 13 0.00 0.00
9:53 am 09:53 Cloudy 69 20.6 66 18.9 90 90 SE 13 20 29.85 1011 8 13 0.00 0.00
10:53 am 10:53 Cloudy 71 21.7 68 20 90 90 SE 12 19 29.84 1010 9 14 0.00 0.00
11:09 am 11:09 Cloudy 71 21.7 68 20 90 90 SE 13 20 29.78 1009 8 13 0.00 0.00
11:16 am 11:16 Cloudy 72 22 68 20 88 88 SE 12 19 29.78 1009 8 13 0.00 0.00
11:48 am 11:48 Cloudy 75 24 70 21 83 83 SE 9 15 29.76 1008 10 16 0.00 0.00
11:53 am 11:53 Cloudy 75 23.9 70 21.1 84 84 SSE 10 17 29.80 1009 10 16 0.00 0.00
12:53 pm 12:53 Mostly Cloudy 81 27.2 68 20 65 65 S 17 28 29.78 1008 10 16 0.00 0.00
1:07 pm 13:07 Mostly Cloudy 82 27.8 68 20 63 63 S 20 31 29.69 1006 10 16 0.00 0.00
1:53 pm 13:53 Mostly Sunny 85 29.4 68 20 57 57 S 20 31 29.74 1007 10 16 0.00 0.00
2:53 pm 14:53 Partly Cloudy 87 30.6 68 20 53 53 SSE 21 33 29.70 1006 10 16 0.00 0.00
3:53 pm 15:53 Partly Cloudy 88 31.1 68 20 52 52 S 17 28 29.69 1005 10 16 0.00 0.00
4:53 pm 16:53 Partly Cloudy 88 31.1 67 19.4 50 50 S 23 37 29.67 1005 10 16 0.00 0.00
5:53 pm 17:53 Mostly Sunny 86 30 68 20 55 55 S 26 43 29.67 1005 10 16 0.00 0.00
6:53 pm 18:53 Mostly Sunny 83 28.3 68 20 61 61 S 21 33 29.69 1005 10 16 0.00 0.00
7:53 pm 19:53 Clear 81 27.2 69 20.6 67 67 SSE 20 31 29.71 1006 10 16 0.00 0.00
8:53 pm 20:53 Mostly Clear 79 26.1 69 20.6 72 72 SSE 18 30 29.72 1007 10 16 0.00 0.00
9:53 pm 21:53 Clear 78 25.6 69 20.6 74 74 SSE 18 30 29.74 1007 10 16 0.00 0.00
10:53 pm 22:53 Partly Cloudy 77 25 70 21.1 79 79 S 21 33 29.74 1007 10 16 0.00 0.00
11:53 pm 23:53 Mostly Clear 77 25 70 21.1 79 79 S 20 31 29.74 1007 10 16 0.00 0.00

Powered by AerisWeather